[[{"header":{"parameterUnit":"m.s-1","parameterCategory":1,"la1":30.2991,"la2":30.254,"lo1":-89.0895,"lo2":-89.0444,"dy":0.0017,"dx":0.0017,"nx":28,"ny":28,"refTime":"2024-02-12T09:00:00:Z","depth":0,"parameterNumber":2,"parameterNumberName":"U-component_of_WINDS"},"data":[0,0,0,0,0,0,0,0,0,0,0,0,0,0,0,0,0,0,0,0,0,0,0,0,0,0,0,0,0,0,0,0,0,0,0,0,0,0,0,0,0,0,0,0,0,0,0,0,0,0,0,0,0,0,0,0,0,0,-0.0798,-0.0799,0,-0.0805,-0.0806,-0.0806,-0.0804,-0.0803,-0.0803,-0.0803,-0.0811,-0.0811,-0.0811,0,0,0,0,0,0,0,0,0,0,0,0,0,-0.0784,-0.0785,-0.0798,-0.0799,-0.0799,-0.0805,-0.0806,-0.0806,-0.0804,-0.0803,-0.0803,-0.0803,-0.0811,-0.0811,-0.0811,0,0,0,0,0,0,0,0,0,0,0,0,0,-0.0791,-0.0785,-0.0798,-0.0798,-0.0798,-0.0805,-0.0806,-0.0806,-0.0804,-0.0803,-0.0803,-0.0803,-0.081,-0.0811,-0.0811,-0.0819,0,0,-0.0813,-0.0813,0,0,0,0,0,0,0,0,-0.0791,-0.0791,-0.0798,-0.0798,-0.0798,-0.0803,-0.0803,-0.081,-0.0804,-0.0802,-0.0803,-0.0803,-0.0808,-0.0809,-0.0811,-0.0819,-0.082,-0.0813,-0.0813,-0.0814,-0.0814,0,0,0,0,0,0,0,-0.079,-0.0791,-0.0801,-0.0798,-0.0799,-0.0798,-0.0799,-0.0805,-0.0806,-0.0802,-0.0802,-0.0802,-0.0808,-0.081,-0.0811,-0.082,-0.0813,-0.0813,-0.0814,-0.0814,-0.0835,-0.0836,0,0,0,0,0,0,-0.0789,-0.0791,-0.0801,-0.0801,-0.0794,-0.0799,-0.08,-0.0802,-0.0806,-0.0807,-0.0803,-0.0802,-0.081,-0.081,-0.0811,-0.0821,-0.0814,-0.0814,-0.0814,-0.0835,-0.0835,-0.0836,0,0,0,0,0,0,-0.0789,-0.079,-0.0801,-0.0796,-0.0797,-0.0799,-0.0802,-0.0802,-0.0804,-0.0807,-0.0807,-0.0804,-0.081,-0.0811,-0.0817,-0.0821,-0.0814,-0.0815,-0.0835,-0.0835,-0.0836,-0.0839,0,0,0,0,0,0,-0.0789,-0.079,-0.0793,-0.0796,-0.0798,-0.0806,-0.0802,-0.0803,-0.0805,-0.0805,-0.0808,-0.0809,-0.0809,-0.0816,-0.0818,-0.0821,-0.0815,-0.0834,-0.0835,-0.0835,-0.0838,-0.0839,-0.084,0,0,0,0,0,-0.0788,-0.0793,-0.0793,-0.0794,-0.0801,-0.0806,-0.0807,-0.0808,-0.0805,-0.0808,-0.081,-0.0809,-0.082,-0.0817,-0.0819,-0.0822,-0.0834,-0.0835,-0.0835,-0.0838,-0.0839,-0.084,0,0,0,0,0,0,-0.079,-0.0794,-0.0793,-0.08,-0.0803,-0.0806,-0.0809,-0.0809,-0.0812,-0.0812,-0.0813,-0.0814,-0.082,-0.0822,-0.0818,-0.083,-0.0827,-0.0828,-0.0829,-0.083,-0.083,-0.083,-0.0816,0,0,0,0,0,-0.0792,-0.0796,-0.0799,-0.0804,-0.0805,-0.0807,-0.081,-0.081,-0.0813,-0.0814,-0.0817,-0.082,-0.0824,-0.0827,-0.0832,-0.0839,-0.084,-0.0843,-0.0843,-0.0844,-0.0845,-0.0849,-0.085,-0.0838,-0.0838,-0.0838,0,0,-0.0794,-0.0797,-0.0799,-0.0804,-0.0807,-0.0811,-0.0808,-0.0813,-0.0816,-0.0815,-0.0821,-0.0823,-0.0827,-0.0834,-0.0838,-0.0836,-0.0849,-0.0845,-0.0845,-0.0846,-0.085,-0.0851,-0.0852,-0.0838,-0.0838,-0.0838,0,0,-0.0801,-0.0803,-0.0808,-0.081,-0.0814,-0.0815,-0.0817,-0.082,-0.0821,-0.0828,-0.0827,-0.0832,-0.0839,-0.0842,-0.0844,-0.0854,-0.0853,-0.0855,-0.0859,-0.0863,-0.0864,-0.0865,-0.0868,-0.087,-0.0856,-0.0856,-0.0856,0,-0.0803,-0.0809,-0.081,-0.0815,-0.0818,-0.0817,-0.0822,-0.0825,-0.083,-0.0832,-0.083,-0.084,-0.0843,-0.0851,-0.0853,-0.0855,-0.0857,-0.0854,-0.0864,-0.0865,-0.0866,-0.0869,-0.087,-0.0856,-0.0856,-0.0856,-0.0856,0,-0.0813,-0.0817,-0.0821,-0.0825,-0.0828,-0.0833,-0.0835,-0.0839,-0.0839,-0.0841,-0.0848,-0.0851,-0.0856,-0.0858,-0.0858,-0.0866,-0.0865,-0.0864,-0.0861,-0.0867,-0.087,-0.0871,-0.0856,-0.0856,-0.0856,-0.0856,0,0,-0.082,-0.0826,-0.0827,-0.0829,-0.0834,-0.0837,-0.0843,-0.0848,-0.085,-0.0854,-0.0859,-0.0866,-0.0865,-0.0868,-0.0869,-0.0873,-0.088,-0.0871,-0.0871,-0.0872,-0.0889,-0.0889,-0.0891,-0.088,-0.088,-0.088,-0.0888,0,-0.0826,-0.0835,-0.0837,-0.0845,-0.0849,-0.0849,-0.0854,-0.0858,-0.086,-0.0864,-0.0866,-0.0871,-0.087,-0.0871,-0.0875,-0.0878,-0.0883,-0.0877,-0.0884,-0.0884,-0.0882,-0.0892,-0.0893,-0.09,-0.089,-0.089,-0.089,0,-0.0835,-0.0839,-0.0848,-0.0852,-0.0854,-0.0858,-0.0863,-0.0867,-0.0872,-0.0873,-0.0877,-0.0877,-0.0883,-0.0881,-0.0889,-0.0885,-0.0888,-0.089,-0.089,-0.089,-0.0887,-0.0892,-0.0903,-0.0904,-0.0892,-0.0892,-0.0891,0,-0.0839,-0.0847,-0.0853,-0.0855,-0.0861,-0.0864,-0.0866,-0.087,-0.0873,-0.0878,-0.088,-0.0886,-0.0888,-0.0893,-0.0895,-0.0893,-0.0904,-0.0901,-0.0905,-0.0905,-0.0906,-0.0906,-0.0917,-0.0909,-0.0909,-0.0909,-0.0909,0,-0.0846,-0.0851,-0.0855,-0.0858,-0.0864,-0.0866,-0.0872,-0.0875,-0.0879,-0.0883,-0.0884,-0.0889,-0.0892,-0.0897,-0.0899,-0.0906,-0.0907,-0.0908,-0.0909,-0.0908,-0.0908,-0.0909,-0.0908,-0.091,-0.091,-0.091,-0.0909,0,-0.0851,-0.0854,-0.086,-0.0865,-0.0867,-0.0871,-0.0875,-0.0879,-0.0882,-0.0887,-0.0889,-0.0893,-0.0899,-0.0902,-0.0909,-0.0911,-0.0918,-0.0919,-0.0917,-0.0917,-0.092,-0.092,-0.0932,-0.0934,-0.0925,-0.0926,-0.0926,0,-0.0855,-0.0859,-0.0865,-0.0868,-0.087,-0.0875,-0.0878,-0.0881,-0.0884,-0.089,-0.0894,-0.09,-0.0904,-0.0914,-0.0918,-0.0924,-0.0924,-0.0928,-0.0924,-0.0924,-0.0923,-0.0923,-0.0923,-0.0928,-0.0928,-0.0928,-0.0928,0,-0.0862,-0.0863,-0.0868,-0.0873,-0.0877,-0.0881,-0.0885,-0.0888,-0.0891,-0.0895,-0.0901,-0.0905,-0.0913,-0.0919,-0.0925,-0.0928,-0.0929,-0.0929,-0.0931,-0.0929,-0.0928,-0.0929,-0.0918,-0.0929,-0.0929,-0.0929,-0.0929,-0.0929,-0.0866,-0.087,-0.0874,-0.088,-0.0883,-0.0887,-0.0891,-0.0895,-0.0899,-0.0906,-0.0907,-0.0914,-0.0919,-0.0928,-0.0931,-0.0936,-0.0935,-0.0937,-0.0938,-0.0938,-0.0938,-0.0928,-0.0938,-0.0938,-0.0938,-0.0938,-0.0938,0,-0.0873,-0.0876,-0.0881,-0.0887,-0.0891,-0.0892,-0.0897,-0.09,-0.0906,-0.091,-0.0915,-0.0923,-0.0929,-0.0933,-0.094,-0.0943,-0.0944,-0.0945,-0.0944,-0.0945,-0.0938,-0.0936,-0.0944,-0.0944,-0.0944,-0.0944,-0.0944,-0.0944,-0.0877,-0.0883,-0.0885,-0.0893,-0.0896,-0.0902,-0.0905,-0.0909,-0.0913,-0.0921,-0.0926,-0.0929,-0.0934,-0.0941,-0.0947,-0.0948,-0.095,-0.0951,-0.0952,-0.0946,-0.0945,-0.0945,-0.0943,-0.0952,-0.0952,-0.0958,-0.0958,-0.0958]},{"header":{"parameterUnit":"m.s-1","parameterCategory":1,"la1":30.2991,"la2":30.254,"lo1":-89.0895,"lo2":-89.0444,"dy":0.0017,"dx":0.0017,"nx":28,"ny":28,"refTime":"2024-02-12T09:00:00:Z","depth":0,"parameterNumber":3,"parameterNumberName":"V-component_of_WINDS"},"data":[0,0,0,0,0,0,0,0,0,0,0,0,0,0,0,0,0,0,0,0,0,0,0,0,0,0,0,0,0,0,0,0,0,0,0,0,0,0,0,0,0,0,0,0,0,0,0,0,0,0,0,0,0,0,0,0,0,0,3.5056,3.5058,0,3.523,3.5232,3.5234,3.5258,3.5256,3.5254,3.5253,3.5432,3.5438,3.5444,0,0,0,0,0,0,0,0,0,0,0,0,0,3.4745,3.475,3.5056,3.5058,3.506,3.5229,3.5232,3.5234,3.5258,3.5256,3.5254,3.5252,3.543,3.5437,3.5445,0,0,0,0,0,0,0,0,0,0,0,0,0,3.4895,3.4752,3.5055,3.5092,3.5097,3.5229,3.5232,3.5235,3.5258,3.5256,3.5253,3.5251,3.5427,3.5437,3.5446,3.5553,0,0,3.5475,3.5479,0,0,0,0,0,0,0,0,3.4887,3.4907,3.5085,3.509,3.5096,3.5219,3.5188,3.5342,3.5259,3.5197,3.5253,3.525,3.5363,3.5378,3.5416,3.5562,3.5569,3.5476,3.5481,3.5485,3.5488,0,0,0,0,0,0,0,3.4876,3.4899,3.5125,3.5087,3.5094,3.51,3.5119,3.5217,3.5292,3.5202,3.5204,3.5225,3.5366,3.5407,3.542,3.5572,3.5475,3.5484,3.5489,3.5493,3.5816,3.5818,0,0,0,0,0,0,3.4859,3.489,3.5119,3.513,3.4983,3.5108,3.5129,3.5182,3.5291,3.5305,3.5227,3.5225,3.5392,3.5409,3.5427,3.5561,3.5485,3.5494,3.55,3.5813,3.5816,3.5819,0,0,0,0,0,0,3.4852,3.4879,3.5112,3.5011,3.5041,3.5116,3.5176,3.5187,3.5228,3.5309,3.5323,3.5255,3.5391,3.5413,3.5522,3.5567,3.5498,3.5507,3.5809,3.5814,3.5818,3.5829,0,0,0,0,0,0,3.4843,3.4876,3.4918,3.5012,3.5046,3.5204,3.5178,3.5192,3.5244,3.5244,3.5339,3.5353,3.539,3.5508,3.5531,3.5579,3.5514,3.5806,3.5811,3.5816,3.5825,3.5833,3.584,0,0,0,0,0,3.4832,3.4914,3.492,3.4947,3.5099,3.5207,3.5226,3.5268,3.5247,3.529,3.5342,3.5349,3.5558,3.5518,3.5545,3.5597,3.5803,3.581,3.5816,3.5821,3.5832,3.584,0,0,0,0,0,0,3.4824,3.4927,3.4935,3.5049,3.5119,3.521,3.5265,3.5277,3.5354,3.5351,3.5399,3.5421,3.5527,3.5573,3.5527,3.5707,3.5679,3.5691,3.5674,3.5684,3.5691,3.5679,3.5522,0,0,0,0,0,3.4836,3.4914,3.4999,3.5092,3.5127,3.519,3.5238,3.5264,3.5338,3.5368,3.5428,3.55,3.5582,3.5635,3.5715,3.5831,3.5853,3.5879,3.5887,3.5893,3.5903,3.5969,3.5983,3.5841,3.5841,3.5841,0,0,3.4861,3.4926,3.4973,3.5093,3.515,3.523,3.5215,3.53,3.5361,3.5381,3.5488,3.5534,3.5618,3.5731,3.5783,3.5772,3.5947,3.5901,3.5905,3.5913,3.5978,3.5991,3.6003,3.5845,3.5844,3.5844,0,0,3.4948,3.5005,3.5089,3.5146,3.5233,3.5274,3.5294,3.5384,3.5416,3.5523,3.554,3.5613,3.5752,3.5812,3.586,3.5969,3.5979,3.5993,3.6034,3.6098,3.6109,3.6119,3.616,3.6174,3.6003,3.6003,3.6003,0,3.4968,3.509,3.5131,3.5216,3.5269,3.529,3.5377,3.543,3.5538,3.5575,3.5559,3.5736,3.5793,3.5921,3.5948,3.5985,3.6011,3.5984,3.6104,3.6115,3.6125,3.6164,3.6179,3.6005,3.6004,3.6004,3.6004,0,3.5111,3.5195,3.5253,3.5357,3.5416,3.5501,3.5555,3.561,3.563,3.5673,3.5783,3.5853,3.5947,3.5979,3.6,3.611,3.6101,3.6094,3.6067,3.6139,3.6177,3.6192,3.6006,3.6006,3.6006,3.6005,0,0,3.52,3.5325,3.5346,3.5394,3.549,3.5556,3.5642,3.5735,3.5781,3.5854,3.5929,3.6046,3.6041,3.6096,3.6124,3.6179,3.6263,3.6166,3.6169,3.6183,3.6391,3.6396,3.6413,3.6269,3.6272,3.6275,3.6384,0,3.53,3.5454,3.5494,3.5626,3.5704,3.5726,3.5801,3.5868,3.5911,3.5984,3.603,3.6114,3.6099,3.6133,3.6189,3.6241,3.6306,3.6233,3.634,3.6344,3.6321,3.6433,3.6439,3.6539,3.6399,3.6402,3.6403,0,3.5437,3.5514,3.5653,3.574,3.5775,3.5842,3.593,3.5999,3.6076,3.6103,3.6164,3.6186,3.6277,3.6244,3.6371,3.6321,3.6367,3.6399,3.6404,3.6418,3.6379,3.6451,3.6572,3.6588,3.6427,3.6425,3.6423,0,3.549,3.5628,3.5729,3.5769,3.5873,3.592,3.5965,3.6039,3.6093,3.6169,3.6205,3.6291,3.6339,3.6405,3.6451,3.6422,3.6575,3.6545,3.6601,3.66,3.6634,3.6631,3.6766,3.666,3.6659,3.6659,3.6659,0,3.5599,3.5684,3.5755,3.5818,3.5914,3.5958,3.6052,3.6098,3.6164,3.6237,3.6259,3.6327,3.6381,3.6457,3.6492,3.6593,3.6614,3.6639,3.6648,3.6639,3.6636,3.6671,3.6666,3.6663,3.6662,3.6661,3.6661,0,3.5675,3.5726,3.5839,3.5927,3.5951,3.6018,3.6094,3.6156,3.6198,3.629,3.6314,3.6381,3.647,3.6521,3.6634,3.6658,3.6771,3.6775,3.6745,3.675,3.6804,3.6799,3.6967,3.6993,3.6867,3.6868,3.6869,0,3.5742,3.5809,3.5904,3.5954,3.6,3.608,3.6134,3.618,3.6236,3.6329,3.638,3.6471,3.6546,3.6689,3.6748,3.6834,3.6842,3.6895,3.6856,3.6844,3.6846,3.6842,3.685,3.6903,3.6904,3.6905,3.6906,0,3.5857,3.5879,3.5956,3.6042,3.6106,3.6177,3.6246,3.6286,3.6343,3.6405,3.6497,3.6555,3.667,3.6761,3.6852,3.6899,3.6913,3.6917,3.6935,3.6928,3.6908,3.6921,3.6766,3.6914,3.6913,3.6913,3.6912,3.6912,3.5932,3.5992,3.6069,3.6155,3.6212,3.6276,3.6339,3.6389,3.6466,3.6564,3.6586,3.6683,3.6759,3.6883,3.6932,3.7009,3.7,3.7025,3.7032,3.7038,3.7041,3.6894,3.7026,3.7026,3.7025,3.7025,3.7025,0,3.605,3.61,3.6178,3.6275,3.6342,3.6347,3.6425,3.6481,3.6566,3.6635,3.6709,3.6815,3.6903,3.6968,3.7058,3.7107,3.7116,3.713,3.7128,3.7139,3.7044,3.702,3.7121,3.7121,3.7121,3.7121,3.7121,3.7121,3.6119,3.6221,3.6252,3.6383,3.6433,3.6528,3.6572,3.6632,3.6687,3.6805,3.6878,3.6919,3.6988,3.7083,3.7164,3.7181,3.7214,3.7227,3.7245,3.7156,3.7145,3.7136,3.7114,3.7233,3.7233,3.7334,3.7335,3.7336]}]]